Volver al catálogo

BRO-31

ActivoRadioaficionadoSSO
NORAD 69896·PAYLOAD·🇺🇸 United States

Lanzado Jul 7, 2026 desde Vandenberg Space Force Base

Loading…

Próximos Pases (próximas 24 horas)

TLE

ActualizadoSource: Space-Track

Época: Sep 14, 2026, 03:33 UTC

1 69896U 26156AD  26257.14839931  .00001335  00000-0  13675-3 0  9995
2 69896  97.7450 156.4774 0006277 295.0456  65.0111 14.92142362 10266

Sigue BRO-31 en tiempo real con AllMySat

Download on the App Store